Weather History for KBEH - June, 2013

Change the Weather History Date:

Thursday, June 20, 2013

  Actual Average Record
Temperature  
Mean Temperature 65 °F -  
Max Temperature 84 °F 79 °F 101 °F (1953)
Min Temperature 48 °F 57 °F 39 °F (2003)
Growing Degree Days 15 (Base 50)    
Moisture  
Dew Point 54 °F    
Average Humidity 65    
Maximum Humidity 97    
Minimum Humidity 38    
Precipitation  
Precipitation 0.00 in - - ()
Sea Level Pressure  
Sea Level Pressure 30.15 in    
Wind  
Wind Speed 2 mph (ESE)    
Max Wind Speed 7 mph    
Max Gust Speed -    
Visibility 10 miles    
Events      
Averages and records for this station are not official NWS values.
T = Trace of Precipitation, MM = Missing Value Source: NWS Daily Summary

Daily Weather History Graph

Daily Weather History Graph

Search for Another Location

Airport or City:

Trip Planner

Search our weather history database for the weather conditions in past years. The results will help you decide how hot, cold, wet, or windy it might be!

Date:

Astronomy

Jun. 20, 2013 Rise Set
Actual Time 6:09 AM EDT 9:25 PM EDT
Civil Twilight 5:35 AM EDT 9:59 PM EDT
Nautical Twilight 4:50 AM EDT 10:44 PM EDT
Astronomical Twilight 3:56 AM EDT 11:38 PM EDT
Moon 6:24 PM EDT (6/20) 3:38 AM EDT (6/20)
Length of Visible Light 16h 24m
Length of Day
15h 15m
Waxing Gibbous, 89% of the Moon is Illuminated
Jun 20
Waxing Gibbous
Jun 23
Full
Jun 30
Last Quarter
Jul 8
New
Jul 15
First Quarter

Hourly Weather History & Observations

Time (EDT) Temp. Heat Index Dew Point Humidity Pressure Visibility Wind Dir Wind Speed Gust Speed Precip Events Conditions
12:53 AM 51.1 °F - 48.9 °F 92% 30.13 in 10.0 mi Calm Calm - N/A   Clear
1:53 AM 51.1 °F - 48.9 °F 92% 30.13 in 10.0 mi Calm Calm - N/A   Clear
2:53 AM 50.0 °F - 48.9 °F 96% 30.14 in 10.0 mi Calm Calm - N/A   Clear
3:53 AM 48.9 °F - 48.0 °F 97% 30.15 in 10.0 mi Calm Calm - N/A   Clear
4:53 AM 48.9 °F - 48.0 °F 97% 30.15 in 10.0 mi Calm Calm - N/A   Clear
5:53 AM 48.9 °F - 48.0 °F 97% 30.16 in 10.0 mi Calm Calm - N/A   Clear
6:53 AM 51.1 °F - 48.9 °F 92% 30.17 in 10.0 mi Calm Calm - N/A   Clear
7:53 AM 61.0 °F - 55.0 °F 81% 30.17 in 10.0 mi Calm Calm - N/A   Clear
8:53 AM 68.0 °F - 57.0 °F 68% 30.18 in 10.0 mi SE 3.5 mph - N/A   Clear
9:53 AM 73.0 °F - 57.0 °F 57% 30.18 in 10.0 mi SSE 3.5 mph - N/A   Clear
10:53 AM 78.1 °F - 57.0 °F 48% 30.18 in 10.0 mi SSW 4.6 mph - N/A   Clear
11:53 AM 80.1 °F 80.2 °F 55.9 °F 43% 30.18 in 10.0 mi Variable 4.6 mph - N/A   Clear
12:53 PM 82.9 °F 82.0 °F 55.0 °F 38% 30.19 in 10.0 mi Variable 5.8 mph - N/A   Clear
1:53 PM 81.0 °F 80.8 °F 55.9 °F 42% 30.18 in 10.0 mi Variable 5.8 mph - N/A   Clear
2:53 PM 82.0 °F 81.6 °F 55.9 °F 41% 30.17 in 10.0 mi Variable 5.8 mph - N/A   Clear
3:53 PM 82.9 °F 82.1 °F 55.9 °F 39% 30.15 in 10.0 mi Variable 4.6 mph - N/A   Clear
4:53 PM 82.9 °F 82.0 °F 55.0 °F 38% 30.13 in 10.0 mi Variable 4.6 mph - N/A   Clear
5:53 PM 82.0 °F 81.4 °F 55.0 °F 39% 30.13 in 10.0 mi NNW 6.9 mph - N/A   Clear
6:53 PM 82.0 °F 81.6 °F 55.9 °F 41% 30.12 in - Calm Calm - N/A   Unknown
7:53 PM 80.1 °F 80.1 °F 55.0 °F 42% 30.11 in 10.0 mi North 3.5 mph - N/A   Partly Cloudy
8:53 PM 75.9 °F - 59.0 °F 56% 30.10 in 10.0 mi Calm Calm - N/A   Partly Cloudy
9:53 PM 70.0 °F - 60.1 °F 71% 30.11 in 10.0 mi Calm Calm - N/A   Clear
10:53 PM 66.9 °F - 61.0 °F 81% 30.13 in 10.0 mi Calm Calm - N/A   Clear
11:53 PM 68.0 °F - 61.0 °F 78% 30.14 in 10.0 mi East 3.5 mph - N/A   Clear